Regional Weather Roundup
Issued by NWS Newport/Morehead, NC

Current Version | Previous Version | Text Only | Print | Product List | Glossary On
Versions: 1 2 3 4 5 6 7 8 9 10 11 12 13 14 15 16 17 18 19 20 21 22 23 24 25 26 27 28 29 30 31 32 33 34 35 36 37 38 39 40 41 42 43 44 45 46 47 48 49 50
000 ASUS42 KMHX 221425 RWRMHX WEATHER ROUNDUP FOR EASTERN NORTH CAROLINA NATIONAL WEATHER SERVICE NEWPORT/MOREHEAD CITY NC 1000 AM EDT SUN OCT 22 2017 NOTE: "FAIR" INDICATES FEW OR NO CLOUDS BELOW 12,000 FEET WITH NO SIGNIFICANT WEATHER AND/OR OBSTRUCTIONS TO VISIBILITY NCZ015>017-031-032-045>047-102-103-221500- NORTH COAST CITY SKY/WX TMP DP RH WIND PRES REMARKS EDENTON MOSUNNY 66 63 88 CALM 30.39S ELIZABETH CITY MOSUNNY 67 64 90 NE3 30.39S KITTY HAWK MOSUNNY 71 64 77 CALM 30.38R MANTEO MOSUNNY N/A N/A N/A E8 30.39S $$ NCZ045>047-081-094-103-104-221500- CENTRAL COAST CITY SKY/WX TMP DP RH WIND PRES REMARKS FRISCO CLOUDY 76 66 71 VRB3 30.37R $$ NCZ095-097-098-100-101-221500- SOUTHERN COAST CITY SKY/WX TMP DP RH WIND PRES REMARKS BEAUFORT CLOUDY 73 67 81 NE8 30.36R CEDAR ISLAND NOT AVBL JACKSONVILLE PTSUNNY 68 61 78 NE6 30.36R PINEY ISLAND N/A N/A N/A N/A NE8 30.36S WILMINGTON MOSUNNY 72 58 61 E9 30.35R $$ NCZ011>013-027>030-043-044-078>080-089-090>093-098-221500- COASTAL PLAIN CITY SKY/WX TMP DP RH WIND PRES REMARKS AHOSKIE MOSUNNY 64 61 90 CALM 30.39S CLINTON MOSUNNY 69 59 71 NE3 30.37S ELIZABETHTOWN NOT AVBL GOLDSBORO PTSUNNY 63 61 92 E3 30.36S FOG GREENVILLE PTSUNNY 63 61 94 E3 30.38S HAVELOCK MOSUNNY 70 66 87 NE7 30.37S KENANSVILLE PTSUNNY 68 59 73 CALM 30.37S KINSTON CLOUDY 63 63 100 CALM 30.38S NEW BERN MOSUNNY 66 64 93 NE6 30.38S RICHLANDS MOSUNNY 66 59 78 NE6 30.37R ROCKY MOUNT MOSUNNY 62 60 93 CALM 30.38S FOG WASHINGTON MOSUNNY 65 59 79 NE5 30.39R WHITEVILLE SUNNY 69 58 69 NE5 30.34S $$ AMZ130-135-150-152-154-156-158-170-250-252-270-ANZ085-086-088-633-658-670-221500- MARINE OBSERVATIONS STATION/POSITION TIME TEMP WIND PRES WAVE SWELL AIR SEA DIR/SP/G HT/PER HT/PER (UTC) (F) (DEG/KT/KT) (MB) (FT/S) (FT/S) CHESAPEAKE LIGHT NOT AVBL 64 E VA BEACH 1350 69 68 60/ 8/ 10 1029.5 3/ 8 2/ 8 DUCK 1400 71 70 70/ 8/ 10 1028.6 2 E DUCK 1400 70 N/A 2/ 8 OREGON INLET 1400 71 71 40/ 7/ 9 1028.6 13E OREGON INLT 1348 73 N/A 2/ 8 2/ 8 HATTERAS CG 1400 73 71 60/ 5/ 8 1028.1 DIAMOND BUOY 1350 76 81 70/ 6/ 10 1028.1 3/ 8 2/ 8 CAPE LOOKOUT 1400 71 360/ 10/ 12 1027.6 BEAUFORT LAB 1400 72 72 20/ 6/ 10 1028.1 30 SE NEW RVR IN 1408 74 60/ 12/ 16 1027.3 30 SE NEW RVR IN NOT AVBL 27 SE WRIGHTSVLE 1408 77 75 140/ 6/ 10 1027.4 5 SE WRIGHTSVLE 1408 73 74 70/ 12/ 19 1027.3 225 S CAPE HAT 1350 77 80 100/ 12/ 14 1026.3 4/ 8 3/ 8 41 SE CHARLESTON 1410 79 79 90/ 17/ 21 1024.5 $$

USA.gov is the U.S. government's official web portal to all federal, state and local government web resources and services.